Buoy 41580

sailwx.info

Track history (hours):
 
Tides and Currents Weather Stations Pressure Air Temp Water Temp Dewpoint Dewpoint Depression Visibility Wind Speed Wind Dir Waves Ship Positions

Drifting buoy 41580

Last reported at 2015-Sep-02 14:00 UTC. Time now 2015-Sep-02 14:50 UTC.
Position N 23°09' W 049°44'.

Barometer 1016.5 mb
Water temperature 30.4 ° C

Date/timePositionNaut miles runAvg speedWind from/ knotsBaromVisibWave heightAir tempDewpointWater temp
2015-Sep-02 14:00N 23°09' W 049°44'1 0.2 1016.5 30.4
2015-Sep-02 09:00N 23°09' W 049°43'1 0.6 1015.3 29.1
2015-Sep-02 07:00N 23°10' W 049°44'0 0.0 1015.2 29.1
2015-Sep-02 00:00N 23°10' W 049°44'2 0.3 1017.3 29.2
2015-Sep-01 19:00N 23°11' W 049°43'2 0.2 1016.5 29.7
2015-Sep-01 08:00N 23°13' W 049°42'1 0.1 1017.4 29.0
2015-Aug-31 21:00N 23°14' W 049°41'1 0.2 1018.3 30.0
2015-Aug-31 17:00N 23°15' W 049°41'0 0.0 1018.9 30.0
2015-Aug-31 16:00N 23°15' W 049°41'1 0.3 1019.4 29.7
2015-Aug-31 12:00N 23°16' W 049°40'0 0.0 1019.9 28.8
2015-Aug-31 11:00N 23°16' W 049°40'0 0.0 1019.7 28.7
2015-Aug-31 10:00N 23°16' W 049°40'1 0.4 1019.3 28.7
2015-Aug-31 08:00N 23°15' W 049°39'2 0.2 1018.6 28.8
2015-Aug-30 23:00N 23°17' W 049°39'1 0.1 1019.8 29.4
2015-Aug-30 09:00N 23°18' W 049°39'0 0.1 1018.3 28.6
2015-Aug-30 08:00N 23°18' W 049°39'1 0.3 1018.1 28.6
2015-Aug-30 05:00N 23°18' W 049°39'1 0.1 1018.5 28.6
2015-Aug-29 23:00N 23°19' W 049°39'1 0.1 1019.3 28.8
2015-Aug-29 12:00N 23°19' W 049°38'0 0.1 1019.9 28.5
2015-Aug-29 10:00N 23°19' W 049°38'1 0.1 1019.1 28.4
2015-Aug-29 04:00N 23°20' W 049°38'0 0.0 1019.9 28.5
2015-Aug-28 20:00N 23°20' W 049°38'1 0.2 1017.8 29.0
2015-Aug-28 17:00N 23°20' W 049°37'1 0.2 1018.8 28.9
2015-Aug-28 14:00N 23°20' W 049°37'1 0.1 1020.1 28.7
2015-Aug-28 08:00N 23°21' W 049°38'0 0.1 1018.0 28.4
2015-Aug-28 07:00N 23°20' W 049°38'1 0.4 1018.1 28.5
2015-Aug-28 04:00N 23°22' W 049°37'0 0.0 1019.3 28.5
2015-Aug-28 01:00N 23°22' W 049°37'0 0.3 1019.9 28.6
2015-Aug-28 00:00N 23°22' W 049°38'0 0.1 1019.5 28.7
2015-Aug-27 23:00N 23°22' W 049°38'0 0.1 1018.8 28.7
2015-Aug-27 17:00N 23°21' W 049°37'0 0.3 1018.3 29.1
2015-Aug-27 16:00N 23°22' W 049°37'1 0.2 1018.6 28.9
2015-Aug-27 10:00N 23°23' W 049°38'1 1.1 1018.5 28.4
2015-Aug-27 09:00N 23°22' W 049°37'1 0.2 1017.8 28.4
2015-Aug-27 01:00N 23°23' W 049°37'1 0.1 1019.9 28.6
2015-Aug-26 18:00N 23°24' W 049°37'1 0.6 1018.3 28.8
2015-Aug-26 17:00N 23°24' W 049°37'1 0.1 1018.6 28.7
2015-Aug-26 09:00N 23°25' W 049°37'0 0.0 1018.3 28.2
2015-Aug-26 05:00N 23°25' W 049°37'1 0.1 1018.6 28.3
2015-Aug-25 20:00N 23°26' W 049°37'1 0.1 1018.2 28.4
2015-Aug-25 09:00N 23°26' W 049°38'0 0.0 1018.4 28.2
2015-Aug-25 05:00N 23°26' W 049°38'0 0.0 1018.5 28.2
2015-Aug-25 01:00N 23°26' W 049°38'0 0.4 1019.4 28.3
2015-Aug-25 00:00N 23°26' W 049°38'0 0.1 1019.2 28.3
2015-Aug-24 19:00N 23°26' W 049°37'1 0.2 1018.3 28.4
2015-Aug-24 12:00N 23°27' W 049°37'0 0.0 1019.7 28.2
2015-Aug-24 11:00N 23°27' W 049°37'1 0.2 1019.4 28.2
2015-Aug-24 08:00N 23°28' W 049°37'1 0.1 1017.9 28.2
2015-Aug-23 20:00N 23°28' W 049°37'0 0.1 1017.5 28.3
2015-Aug-23 19:00N 23°28' W 049°37'0 0.0 1017.5 28.3
2015-Aug-23 14:00N 23°29' W 049°37'   1019.1 28.2
Track history (hours):
 
Tides and Currents Weather Stations Pressure Air Temp Water Temp Dewpoint Dewpoint Depression Visibility Wind Speed Wind Dir Waves Ship Positions

Drifting buoy 41580

Last reported at 2015-Sep-02 14:00 UTC. Time now 2015-Sep-02 14:50 UTC.
Position N 23°09' W 049°44'.

Barometer 1016.5 mb
Water temperature 30.4 ° C

Date/timePositionNaut miles runAvg speedWind from/ knotsBaromVisibWave heightAir tempDewpointWater temp
2015-Sep-02 14:00N 23°09' W 049°44'1 0.2 1016.5 30.4
2015-Sep-02 09:00N 23°09' W 049°43'1 0.6 1015.3 29.1
2015-Sep-02 07:00N 23°10' W 049°44'0 0.0 1015.2 29.1
2015-Sep-02 00:00N 23°10' W 049°44'2 0.3 1017.3 29.2
2015-Sep-01 19:00N 23°11' W 049°43'2 0.2 1016.5 29.7
2015-Sep-01 08:00N 23°13' W 049°42'1 0.1 1017.4 29.0
2015-Aug-31 21:00N 23°14' W 049°41'1 0.2 1018.3 30.0
2015-Aug-31 17:00N 23°15' W 049°41'0 0.0 1018.9 30.0
2015-Aug-31 16:00N 23°15' W 049°41'1 0.3 1019.4 29.7
2015-Aug-31 12:00N 23°16' W 049°40'0 0.0 1019.9 28.8
2015-Aug-31 11:00N 23°16' W 049°40'0 0.0 1019.7 28.7
2015-Aug-31 10:00N 23°16' W 049°40'1 0.4 1019.3 28.7
2015-Aug-31 08:00N 23°15' W 049°39'2 0.2 1018.6 28.8
2015-Aug-30 23:00N 23°17' W 049°39'1 0.1 1019.8 29.4
2015-Aug-30 09:00N 23°18' W 049°39'0 0.1 1018.3 28.6
2015-Aug-30 08:00N 23°18' W 049°39'1 0.3 1018.1 28.6
2015-Aug-30 05:00N 23°18' W 049°39'1 0.1 1018.5 28.6
2015-Aug-29 23:00N 23°19' W 049°39'1 0.1 1019.3 28.8
2015-Aug-29 12:00N 23°19' W 049°38'0 0.1 1019.9 28.5
2015-Aug-29 10:00N 23°19' W 049°38'1 0.1 1019.1 28.4
2015-Aug-29 04:00N 23°20' W 049°38'0 0.0 1019.9 28.5
2015-Aug-28 20:00N 23°20' W 049°38'1 0.2 1017.8 29.0
2015-Aug-28 17:00N 23°20' W 049°37'1 0.2 1018.8 28.9
2015-Aug-28 14:00N 23°20' W 049°37'1 0.1 1020.1 28.7
2015-Aug-28 08:00N 23°21' W 049°38'0 0.1 1018.0 28.4
2015-Aug-28 07:00N 23°20' W 049°38'1 0.4 1018.1 28.5
2015-Aug-28 04:00N 23°22' W 049°37'0 0.0 1019.3 28.5
2015-Aug-28 01:00N 23°22' W 049°37'0 0.3 1019.9 28.6
2015-Aug-28 00:00N 23°22' W 049°38'0 0.1 1019.5 28.7
2015-Aug-27 23:00N 23°22' W 049°38'0 0.1 1018.8 28.7
2015-Aug-27 17:00N 23°21' W 049°37'0 0.3 1018.3 29.1
2015-Aug-27 16:00N 23°22' W 049°37'1 0.2 1018.6 28.9
2015-Aug-27 10:00N 23°23' W 049°38'1 1.1 1018.5 28.4
2015-Aug-27 09:00N 23°22' W 049°37'1 0.2 1017.8 28.4
2015-Aug-27 01:00N 23°23' W 049°37'1 0.1 1019.9 28.6
2015-Aug-26 18:00N 23°24' W 049°37'1 0.6 1018.3 28.8
2015-Aug-26 17:00N 23°24' W 049°37'1 0.1 1018.6 28.7
2015-Aug-26 09:00N 23°25' W 049°37'0 0.0 1018.3 28.2
2015-Aug-26 05:00N 23°25' W 049°37'1 0.1 1018.6 28.3
2015-Aug-25 20:00N 23°26' W 049°37'1 0.1 1018.2 28.4
2015-Aug-25 09:00N 23°26' W 049°38'0 0.0 1018.4 28.2
2015-Aug-25 05:00N 23°26' W 049°38'0 0.0 1018.5 28.2
2015-Aug-25 01:00N 23°26' W 049°38'0 0.4 1019.4 28.3
2015-Aug-25 00:00N 23°26' W 049°38'0 0.1 1019.2 28.3
2015-Aug-24 19:00N 23°26' W 049°37'1 0.2 1018.3 28.4
2015-Aug-24 12:00N 23°27' W 049°37'0 0.0 1019.7 28.2
2015-Aug-24 11:00N 23°27' W 049°37'1 0.2 1019.4 28.2
2015-Aug-24 08:00N 23°28' W 049°37'1 0.1 1017.9 28.2
2015-Aug-23 20:00N 23°28' W 049°37'0 0.1 1017.5 28.3
2015-Aug-23 19:00N 23°28' W 049°37'0 0.0 1017.5 28.3
2015-Aug-23 14:00N 23°29' W 049°37'   1019.1 28.2

Dump ship's entire track history